KC5TIL Weather Reports


Display with metric or nautical units.
time (UTC)temp
F
wind
direction
speed
MPH
gust
MPH
rain 1hr
in
rain 24hr
in
rain mn
in
humidity
%
barometer
mb
20260510025405 80 147 1.0 1.0 0.00 0.00 0.00 67 1009.5
20260510024902 80 143 1.0 2.0 0.00 0.00 0.00 68 1009.3
20260510024358 80 132 1.0 1.0 0.00 0.00 0.00 67 1009.1
20260510023854 80 143 1.0 2.0 0.00 0.00 0.00 67 1009.2
20260510023351 81 156 1.0 1.0 0.00 0.00 0.00 67 1009.1
20260510022848 81 137 1.0 2.0 0.00 0.00 0.00 67 1009.2
20260510022347 81 131 1.0 2.0 0.00 0.00 0.00 67 1009.1
20260510021846 81 142 1.0 1.0 0.00 0.00 0.00 69 1009.0
20260510021344 81 132 0.0 1.0 0.00 0.00 0.00 67 1008.7
20260510020840 81 138 1.0 2.0 0.00 0.00 0.00 67 1008.8
20260510020335 81 167 1.0 2.0 0.00 0.00 0.00 66 1008.7
20260510015831 80 129 0.0 0.0 0.00 0.00 0.00 67 1008.6
20260510015327 80 136 0.0 0.0 0.00 0.00 0.00 68 1008.6
20260510014822 80 130 0.0 0.0 0.00 0.00 0.00 68 1008.4
20260510014320 81 125 0.0 0.0 0.00 0.00 0.00 66 1008.3
20260510013816 82 111 0.0 1.0 0.00 0.00 0.00 64 1008.3
20260510013312 83 135 1.0 1.0 0.00 0.00 0.00 56 1008.1
20260510012807 83 130 0.0 0.0 0.00 0.00 0.00 56 1008.1
20260510012307 83 131 0.0 0.0 0.00 0.00 0.00 56 1008.0
20260510011801 83 128 0.0 1.0 0.00 0.00 0.00 57 1008.0
20260510011257 84 133 0.0 1.0 0.00 0.00 0.00 56 1007.9
20260510010754 84 193 1.0 2.0 0.00 0.00 0.00 57 1007.8
20260510010250 84 129 0.0 1.0 0.00 0.00 0.00 59 1007.7
20260510005747 85 124 0.0 1.0 0.00 0.00 0.00 58 1007.7
20260510005243 85 130 1.0 2.0 0.00 0.00 0.00 57 1007.7
20260510004742 86 128 1.0 1.0 0.00 0.00 0.00 58 1007.6
20260510004239 86 142 0.0 1.0 0.00 0.00 0.00 57 1007.5
20260510003736 87 144 0.0 0.0 0.00 0.00 0.00 57 1007.7
20260510003232 87 130 0.0 0.0 0.00 0.00 0.00 57 1007.6
20260510002731 87 130 0.0 0.0 0.00 0.00 0.00 58 1007.5
20260510002229 88 130 0.0 0.0 0.00 0.00 0.00 57 1007.5
20260510001725 89 131 0.0 0.0 0.00 0.00 0.00 54 1007.5
20260510001224 89 129 0.0 1.0 0.00 0.00 0.00 53 1007.6
20260510000720 89 82 0.0 1.0 0.00 0.00 0.00 54 1007.6
20260510000219 89 136 0.0 0.0 0.00 0.00 0.00 52 1007.7
20260509235714 89 134 0.0 2.0 0.00 0.00 0.00 51 1007.6
20260509235210 89 134 0.0 0.0 0.00 0.00 0.00 53 1007.5
20260509234706 90 134 0.0 1.0 0.00 0.00 0.00 54 1007.5
20260509234204 90 127 0.0 1.0 0.00 0.00 0.00 54 1007.6
20260509233702 89 120 1.0 2.0 0.00 0.00 0.00 50 1007.7
20260509233159 90 122 0.0 2.0 0.00 0.00 0.00 48 1007.5
20260509232655 89 65 1.0 2.0 0.00 0.00 0.00 50 1007.6
20260509232152 90 109 0.0 1.0 0.00 0.00 0.00 54 1007.4
20260509231649 90 109 0.0 1.0 0.00 0.00 0.00 46 1007.4
20260509231146 91 77 2.0 2.0 0.00 0.00 0.00 42 1007.6
20260509230643 90 129 0.0 1.0 0.00 0.00 0.00 42 1007.6
20260509230140 90 126 0.0 1.0 0.00 0.00 0.00 42 1007.5
20260509225636 90 140 0.0 1.0 0.00 0.00 0.00 44 1007.7
20260509225131 90 96 1.0 2.0 0.00 0.00 0.00 43 1007.5
20260509224627 90 128 1.0 1.0 0.00 0.00 0.00 44 1007.6
20260509224124 90 94 3.0 3.0 0.00 0.00 0.00 42 1007.8
20260509223621 90 123 0.0 1.0 0.00 0.00 0.00 43 1007.6
20260509223118 90 141 0.0 1.0 0.00 0.00 0.00 44 1007.5
20260509222614 91 117 0.0 1.0 0.00 0.00 0.00 44 1007.7
20260509222110 91 102 1.0 1.0 0.00 0.00 0.00 43 1007.6
20260509221606 92 129 1.0 1.0 0.00 0.00 0.00 43 1007.5
20260509221102 92 103 0.0 0.0 0.00 0.00 0.00 41 1007.5
20260509220558 90 137 0.0 1.0 0.00 0.00 0.00 44 1007.5
20260509220055 91 121 1.0 1.0 0.00 0.00 0.00 44 1007.8
20260509215550 90 137 0.0 2.0 0.00 0.00 0.00 44 1007.9
20260509215048 90 103 1.0 1.0 0.00 0.00 0.00 45 1007.7
20260509214545 90 114 0.0 1.0 0.00 0.00 0.00 45 1007.7
20260509214042 91 94 2.0 2.0 0.00 0.00 0.00 44 1007.8
20260509213538 90 134 0.0 1.0 0.00 0.00 0.00 45 1008.2
20260509213035 90 140 0.0 2.0 0.00 0.00 0.00 48 1008.0
20260509212532 91 129 0.0 1.0 0.00 0.00 0.00 47 1008.1
20260509212029 90 148 1.0 2.0 0.00 0.00 0.00 46 1008.3
20260509211524 90 134 0.0 1.0 0.00 0.00 0.00 47 1008.4
20260509211021 89 115 0.0 2.0 0.00 0.00 0.00 46 1008.4
20260509210518 90 74 2.0 3.0 0.00 0.00 0.00 47 1008.4
20260509210015 91 127 0.0 2.0 0.00 0.00 0.00 45 1008.4
20260509205509 91 138 0.0 1.0 0.00 0.00 0.00 48 1008.4
20260509205005 91 163 1.0 1.0 0.00 0.00 0.00 47 1008.6
20260509204501 91 148 1.0 2.0 0.00 0.00 0.00 47 1008.8
20260509203957 91 158 0.0 3.0 0.00 0.00 0.00 47 1009.0
20260509203453 91 135 1.0 2.0 0.00 0.00 0.00 49 1009.0
20260509202951 90 165 0.0 2.0 0.00 0.00 0.00 47 1009.0
20260509202447 90 154 1.0 2.0 0.00 0.00 0.00 50 1009.1
20260509201942 90 129 1.0 2.0 0.00 0.00 0.00 46 1009.3
20260509201437 90 161 1.0 3.0 0.00 0.00 0.00 42 1009.2
20260509200935 91 180 1.0 2.0 0.00 0.00 0.00 46 1009.3
20260509200434 90 171 1.0 2.0 0.00 0.00 0.00 46 1009.4
20260509195932 90 137 0.0 1.0 0.00 0.00 0.00 44 1009.3
20260509195427 90 121 1.0 2.0 0.00 0.00 0.00 44 1009.3
20260509194926 89 162 1.0 2.0 0.00 0.00 0.00 46 1009.4
20260509194422 88 132 1.0 3.0 0.00 0.00 0.00 52 1009.6
20260509193920 90 109 1.0 2.0 0.00 0.00 0.00 45 1009.6
20260509193419 89 120 0.0 1.0 0.00 0.00 0.00 44 1009.7
20260509192916 89 291 2.0 3.0 0.00 0.00 0.00 44 1009.6
20260509192412 89 347 3.0 6.0 0.00 0.00 0.00 45 1009.9
20260509191907 89 141 0.0 6.0 0.00 0.00 0.00 45 1009.6
20260509191403 89 261 3.0 5.0 0.00 0.00 0.00 45 1009.9
20260509190859 89 127 0.0 2.0 0.00 0.00 0.00 47 1009.9
20260509190356 88 119 1.0 2.0 0.00 0.00 0.00 46 1010.0
20260509185854 88 51 2.0 5.0 0.00 0.00 0.00 46 1009.9
20260509185350 88 300 4.0 7.0 0.00 0.00 0.00 46 1010.2
20260509184847 88 342 3.0 5.0 0.00 0.00 0.00 47 1010.1
20260509184344 88 307 4.0 6.0 0.00 0.00 0.00 46 1010.1
20260509183841 88 93 0.0 1.0 0.00 0.00 0.00 47 1010.2
20260509183336 88 145 1.0 5.0 0.00 0.00 0.00 48 1010.1
20260509182832 88 180 1.0 7.0 0.00 0.00 0.00 46 1010.5
20260509182329 88 120 0.0 2.0 0.00 0.00 0.00 47 1010.5
20260509181826 88 292 2.0 3.0 0.00 0.00 0.00 47 1010.3
20260509181318 87 29 1.0 2.0 0.00 0.00 0.00 49 1010.5
20260509180816 86 282 5.0 7.0 0.00 0.00 0.00 49 1010.5
20260509180311 87 239 2.0 6.0 0.00 0.00 0.00 50 1010.6
20260509175808 87 198 1.0 5.0 0.00 0.00 0.00 50 1010.7
20260509175259 86 316 4.0 5.0 0.00 0.00 0.00 50 1010.6
20260509174755 86 324 3.0 5.0 0.00 0.00 0.00 47 1010.6
20260509174250 86 43 1.0 3.0 0.00 0.00 0.00 50 1010.9
20260509173747 86 30 5.0 6.0 0.00 0.00 0.00 49 1010.8
20260509173242 86 60 1.0 7.0 0.00 0.00 0.00 50 1010.8
20260509172738 86 305 3.0 6.0 0.00 0.00 0.00 51 1010.7
20260509172236 86 26 6.0 7.0 0.00 0.00 0.00 50 1010.9
20260509171731 86 338 2.0 3.0 0.00 0.00 0.00 49 1011.0
20260509171227 85 346 2.0 6.0 0.00 0.00 0.00 52 1011.0
20260509170724 85 155 3.0 7.0 0.00 0.00 0.00 51 1011.2
20260509170220 85 275 2.0 7.0 0.00 0.00 0.00 53 1011.4
20260509165719 84 346 2.0 7.0 0.00 0.00 0.00 51 1011.3
20260509165214 85 134 1.0 5.0 0.00 0.00 0.00 52 1011.4
20260509164710 84 356 4.0 7.0 0.00 0.00 0.00 51 1011.4
20260509164206 84 13 2.0 3.0 0.00 0.00 0.00 53 1011.3
20260509163704 84 252 2.0 8.0 0.00 0.00 0.00 54 1011.4
20260509163200 84 106 1.0 8.0 0.00 0.00 0.00 56 1011.2
20260509162658 83 352 3.0 7.0 0.00 0.00 0.00 56 1011.4
20260509162153 83 290 6.0 7.0 0.00 0.00 0.00 56 1011.4
20260509161649 83 3 4.0 6.0 0.00 0.00 0.00 55 1011.4
20260509161144 82 314 3.0 9.0 0.00 0.00 0.00 57 1011.4
20260509160640 82 13 4.0 7.0 0.00 0.00 0.00 57 1011.3
20260509160136 82 287 3.0 8.0 0.00 0.00 0.00 57 1011.6
20260509155632 81 340 4.0 7.0 0.00 0.00 0.00 57 1011.6
20260509155129 82 328 5.0 6.0 0.00 0.00 0.00 56 1011.6
20260509154624 81 337 3.0 6.0 0.00 0.00 0.00 56 1011.5
20260509154122 82 328 2.0 6.0 0.00 0.00 0.00 58 1011.4
20260509153619 80 288 3.0 7.0 0.00 0.00 0.00 59 1011.4
20260509153115 80 270 3.0 7.0 0.00 0.00 0.00 58 1011.3
20260509152611 80 1 6.0 8.0 0.00 0.00 0.00 58 1011.5
20260509152109 80 41 4.0 8.0 0.00 0.00 0.00 57 1011.3
20260509151605 80 72 3.0 7.0 0.00 0.00 0.00 59 1011.6
20260509151103 80 316 3.0 5.0 0.00 0.00 0.00 59 1011.3
20260509150600 80 3 4.0 6.0 0.00 0.00 0.00 59 1011.4
20260509150058 79 244 2.0 7.0 0.00 0.00 0.00 62 1011.3
20260509145553 79 239 4.0 7.0 0.00 0.00 0.00 65 1011.6
20260509145049 78 14 3.0 5.0 0.00 0.00 0.00 68 1011.6
20260509144546 78 88 1.0 5.0 0.00 0.00 0.00 69 1011.8
20260509144043 78 337 3.0 5.0 0.00 0.00 0.00 68 1011.6
20260509143540 77 319 3.0 5.0 0.00 0.00 0.00 72 1011.8
20260509143033 77 214 3.0 7.0 0.00 0.00 0.00 71 1011.9
20260509142528 77 258 4.0 5.0 0.00 0.00 0.00 72 1011.9
20260509142023 77 220 4.0 6.0 0.00 0.00 0.00 72 1011.9
20260509141520 77 310 2.0 6.0 0.00 0.00 0.00 73 1012.1
20260509141017 76 280 7.0 10.0 0.00 0.00 0.00 73 1011.9
20260509140514 76 307 6.0 9.0 0.00 0.00 0.00 74 1011.8
20260509140012 76 227 3.0 6.0 0.00 0.00 0.00 75 1011.9
20260509135509 76 332 3.0 6.0 0.00 0.00 0.00 75 1011.9
20260509135006 75 314 4.0 5.0 0.00 0.00 0.00 76 1011.9
20260509134503 75 28 1.0 2.0 0.00 0.00 0.00 77 1012.0
20260509134001 74 246 2.0 2.0 0.00 0.00 0.00 78 1011.9
20260509133457 73 326 4.0 5.0 0.00 0.00 0.00 78 1011.9
20260509132955 73 242 3.0 6.0 0.00 0.00 0.00 78 1011.9
20260509132453 72 276 3.0 5.0 0.00 0.00 0.00 79 1011.7
20260509131950 72 274 1.0 6.0 0.00 0.00 0.00 80 1011.7
20260509131447 72 193 0.0 3.0 0.00 0.00 0.00 80 1011.8
20260509130943 72 256 2.0 5.0 0.00 0.00 0.00 80 1011.7
20260509130439 72 210 1.0 5.0 0.00 0.00 0.00 79 1011.7
20260509125936 72 267 3.0 3.0 0.00 0.00 0.00 79 1012.0
20260509125433 72 281 6.0 8.0 0.00 0.00 0.00 79 1011.9
20260509124929 71 276 5.0 8.0 0.00 0.00 0.00 80 1011.9
20260509124426 71 290 3.0 5.0 0.00 0.00 0.00 80 1011.8
20260509123923 71 215 2.0 3.0 0.00 0.00 0.00 81 1011.7
20260509123421 70 310 3.0 5.0 0.00 0.00 0.00 82 1012.0
20260509122916 70 299 4.0 5.0 0.00 0.00 0.00 83 1011.8
20260509122414 69 285 1.0 2.0 0.00 0.00 0.00 84 1011.8
20260509121910 69 288 2.0 2.0 0.00 0.00 0.00 85 1011.9
20260509121407 69 170 1.0 2.0 0.00 0.00 0.00 85 1011.8
20260509120905 69 241 1.0 2.0 0.00 0.00 0.00 85 1011.7
20260509120403 69 293 2.0 2.0 0.00 0.00 0.00 86 1011.7
20260509115901 68 273 1.0 2.0 0.00 0.00 0.00 89 1011.7
20260509115357 68 127 0.0 1.0 0.00 0.00 0.00 89 1011.8
20260509114855 69 139 0.0 0.0 0.00 0.00 0.00 89 1011.7
20260509114354 69 135 0.0 0.0 0.00 0.00 0.00 89 1011.5
20260509113853 69 109 0.0 1.0 0.00 0.00 0.00 88 1011.3
20260509113350 69 132 0.0 1.0 0.00 0.00 0.00 88 1011.5
20260509112846 69 132 0.0 0.0 0.00 0.00 0.00 89 1011.4
20260509112343 70 120 0.0 0.0 0.00 0.00 0.00 88 1011.2
20260509111841 70 144 0.0 1.0 0.00 0.00 0.00 87 1011.1
20260509111337 71 180 0.0 1.0 0.00 0.00 0.00 87 1011.0
20260509110835 70 142 0.0 0.0 0.00 0.00 0.00 87 1011.0
20260509110331 70 134 0.0 0.0 0.00 0.00 0.00 87 1010.9
20260509105829 70 129 0.0 0.0 0.00 0.00 0.00 86 1010.8
20260509105327 71 133 0.0 0.0 0.00 0.00 0.00 86 1010.8
20260509104823 71 127 0.0 0.0 0.00 0.00 0.00 85 1010.7
20260509104320 72 133 0.0 0.0 0.00 0.00 0.00 84 1010.7
20260509103818 72 128 0.0 0.0 0.00 0.00 0.00 83 1010.6
20260509103315 73 141 1.0 1.0 0.00 0.00 0.00 83 1010.8
20260509102814 73 178 2.0 3.0 0.00 0.00 0.00 82 1010.9
20260509102311 73 152 1.0 7.0 0.00 0.00 0.00 81 1011.0
20260509101806 73 256 5.0 8.0 0.00 0.00 0.00 80 1010.9
20260509101303 73 324 7.0 9.0 0.00 0.00 0.00 83 1010.8
20260509100801 72 316 2.0 3.0 0.00 0.00 0.00 85 1010.8
20260509100258 72 301 3.0 6.0 0.00 0.00 0.00 85 1010.7
20260509095754 72 6 1.0 3.0 0.00 0.00 0.00 87 1010.7
20260509095252 72 266 5.0 8.0 0.00 0.00 0.00 88 1010.7
20260509094748 72 213 3.0 9.0 0.00 0.00 0.00 89 1009.9
20260509094245 71 14 4.0 7.0 0.00 0.00 0.00 90 1009.4
20260509093743 71 150 0.0 2.0 0.00 0.00 0.00 90 1008.2
20260509093240 71 143 1.0 2.0 0.00 0.00 0.00 90 1008.1
20260509092739 71 124 1.0 3.0 0.00 0.00 0.00 91 1008.0
20260509092236 71 124 1.0 2.0 0.00 0.00 0.00 91 1008.0
20260509091734 71 202 1.0 2.0 0.00 0.00 0.00 91 1008.0
20260509091230 70 147 0.0 1.0 0.00 0.00 0.00 91 1008.1
20260509090728 70 145 1.0 3.0 0.00 0.00 0.00 91 1008.0
20260509090224 70 124 1.0 3.0 0.00 0.00 0.00 91 1008.0
20260509085722 70 139 1.0 3.0 0.00 0.00 0.00 91 1008.3
20260509085219 70 139 1.0 3.0 0.00 0.00 0.00 91 1008.4
20260509084716 70 133 1.0 5.0 0.00 0.00 0.00 91 1008.5
20260509084212 70 185 1.0 3.0 0.00 0.00 0.00 91 1008.6
20260509083711 70 146 3.0 7.0 0.00 0.00 0.00 92 1008.7
20260509083207 70 128 0.0 2.0 0.00 0.00 0.00 92 1008.6
20260509082704 70 156 1.0 3.0 0.00 0.00 0.00 92 1008.8
20260509082200 70 182 3.0 5.0 0.00 0.00 0.00 92 1009.0
20260509081657 70 193 1.0 5.0 0.00 0.00 0.00 92 1009.5
20260509081155 70 153 1.0 2.0 0.00 0.00 0.00 92 1009.5
20260509080653 70 85 3.0 6.0 0.00 0.00 0.00 92 1009.7
20260509080150 70 130 0.0 3.0 0.00 0.00 0.00 91 1009.9
20260509075648 70 112 0.0 1.0 0.00 0.00 0.00 91 1010.3
20260509075146 70 93 1.0 1.0 0.00 0.00 0.00 90 1010.7
20260509074642 71 123 0.0 1.0 0.00 0.00 0.00 90 1010.9
20260509074139 71 148 1.0 2.0 0.00 0.00 0.00 90 1011.3
20260509073636 71 123 0.0 1.0 0.00 0.00 0.00 89 1011.5
20260509073132 71 131 1.0 2.0 0.00 0.00 0.00 89 1011.6
20260509072629 71 138 0.0 1.0 0.00 0.00 0.00 89 1012.0
20260509072126 71 167 1.0 1.0 0.00 0.00 0.00 89 1012.3
20260509071622 71 67 1.0 1.0 0.00 0.00 0.00 89 1012.2
20260509071120 71 116 0.0 1.0 0.00 0.00 0.00 90 1012.5
20260509070617 71 131 0.0 2.0 0.00 0.00 0.00 90 1012.8
20260509070113 71 134 0.0 1.0 0.00 0.00 0.00 90 1012.8
20260509065609 71 296 2.0 2.0 0.00 0.00 0.00 90 1013.0
20260509065105 71 128 0.0 1.0 0.00 0.00 0.00 90 1013.0
20260509064602 71 132 0.0 2.0 0.00 0.00 0.00 91 1012.8
20260509064101 71 129 0.0 1.0 0.00 0.00 0.00 91 1012.5
20260509063556 70 128 0.0 2.0 0.00 0.00 0.00 91 1012.7
20260509063053 70 131 0.0 0.0 0.00 0.00 0.00 91 1012.4
20260509062550 70 189 1.0 2.0 0.00 0.00 0.00 91 1012.5
20260509062048 70 142 0.0 1.0 0.00 0.00 0.00 91 1012.7
20260509061544 71 135 1.0 1.0 0.00 0.00 0.00 91 1012.9
20260509061042 71 129 0.0 0.0 0.00 0.00 0.00 91 1012.5
20260509060539 71 155 1.0 1.0 0.00 0.00 0.00 91 1012.5
20260509060034 71 131 0.0 1.0 0.00 0.00 0.00 90 1012.7
20260509055530 71 335 1.0 1.0 0.00 0.00 0.00 90 1012.6
20260509055021 71 137 1.0 2.0 0.00 0.00 0.00 90 1012.5
20260509054518 71 93 1.0 2.0 0.00 0.00 0.00 90 1012.4
20260509054016 71 58 1.0 5.0 0.00 0.00 0.00 90 1012.8
20260509053514 71 114 0.0 2.0 0.00 0.00 0.00 90 1012.5
20260509053011 70 22 3.0 3.0 0.00 0.00 0.00 91 1012.3
20260509052508 70 74 1.0 2.0 0.00 0.00 0.00 92 1011.8
20260509052006 70 127 0.0 1.0 0.00 0.00 0.00 91 1011.6
20260509051504 70 119 1.0 1.0 0.00 0.00 0.00 92 1011.7
20260509051001 70 128 0.0 1.0 0.00 0.00 0.00 91 1011.6
20260509050457 70 125 0.0 0.0 0.00 0.00 0.00 91 1011.7
20260509045954 70 111 0.0 0.0 0.00 0.00 0.00 91 1011.5
20260509045451 70 121 0.0 0.0 0.00 0.00 0.00 91 1011.5
20260509044948 70 122 0.0 0.0 0.00 0.00 0.00 90 1011.3
20260509044446 71 134 0.0 0.0 0.00 0.00 0.00 90 1011.5
20260509043943 71 124 0.0 0.0 0.00 0.00 0.00 89 1011.5
20260509043438 71 127 0.0 0.0 0.00 0.00 0.00 89 1011.6
20260509042934 71 128 0.0 1.0 0.00 0.00 0.00 89 1011.9
20260509042431 72 134 0.0 1.0 0.00 0.00 0.00 89 1011.7
20260509041927 71 163 2.0 2.0 0.00 0.00 0.00 89 1011.9
20260509041424 71 134 1.0 1.0 0.00 0.00 0.00 90 1012.1
20260509040922 71 117 0.0 0.0 0.00 0.00 0.00 89 1012.0
20260509040420 71 117 0.0 1.0 0.00 0.00 0.00 89 1011.9
20260509035917 72 119 0.0 0.0 0.00 0.00 0.00 88 1011.7
20260509035414 72 122 0.0 1.0 0.00 0.00 0.00 88 1011.5
20260509034910 72 108 0.0 1.0 0.00 0.00 0.00 88 1011.6
20260509034408 72 117 0.0 1.0 0.00 0.00 0.00 88 1011.2
20260509033905 72 106 1.0 1.0 0.00 0.00 0.00 87 1010.8
20260509033402 72 127 0.0 0.0 0.00 0.00 0.00 87 1011.0
20260509032858 72 131 0.0 1.0 0.00 0.00 0.00 87 1011.0
20260509032355 72 109 0.0 1.0 0.00 0.00 0.00 87 1010.9
20260509031854 72 131 1.0 2.0 0.00 0.00 0.00 87 1010.7
20260509031351 73 121 1.0 2.0 0.00 0.00 0.00 87 1010.3
20260509030848 73 157 1.0 2.0 0.00 0.00 0.00 86 1010.5
20260509030346 73 128 0.0 3.0 0.00 0.00 0.00 86 1010.3
20260509025843 73 132 1.0 2.0 0.00 0.00 0.00 86 1010.3